Back to catalog

STARLINK-1274

AliveCommunicationsVLEO
NORAD 45387·PAYLOAD·🇺🇸 United States

Launched Mar 18, 2020 from Cape Canaveral Space Force Station

Loading…

Next Passes (next 24 hours)

TLE

FreshSource: CelesTrak SupGP

Epoch: Sep 14, 2026, 22:10 UTC

1 45387C 20019AD  26257.92409722  .00234280  00000+0  96112-3 0  2573
2 45387  53.0085 255.1900 0007371  60.5554 118.3017 15.85136810    15

Track STARLINK-1274 in real time with AllMySat

Download on the App Store